Location: Berkeley
(37.8716°N, 122.2727°W)
Time: 23:34:38
(UTC-07:00)

ARIANE 6 FM1 Upper Stage - Pass Details

Date: 12 May 2026
Orbit: 528 x 599 km, 62.0° (Epoch: 10 June)

Event Time Altitude Azimuth Distance (km) Brightness Sun altitude
Rises 20:47:13 0° 305° (NW) 2,665 8.7 -7.4°
Reaches altitude 10° 20:50:13 10° 281° (W) 1,772 6.6 -7.9°
Maximum altitude 20:52:25 14° 247° (WSW) 1,507 5.4 -8.2°
Drops below altitude 10° 20:54:37 10° 213° (SSW) 1,772 5.2 -8.6°
Sets 20:57:38 0° 188° (S) 2,666 5.9 -9.1°
